Flag for Netherlands Weather past 2 weeks in Haarlem, Netherlands

45 °F

Rain. Partly cloudy.

Feels Like: 37 °F
Forecast: 50 / 54 °F
Wind: 17 mph from Northwest

Location: Amsterdam Schiphol Airport

Current Time: Nov 28, 2015 at 6:01:36 AM

Latest Report: Nov 28, 2015 at 4:55 AM

Visibility: N/A

Pressure: 29.71 "Hg

Humidity: 81%

Dew point: 39 °F

Location of HaarlemLocation

Historic Weather in Haarlem — Graph


Haarlem temperature yesterday

Maximum temperature yesterday: 45 °F (at 12:25 PM)
Minimum temperature yesterday: 37 °F (at 3:55 AM)
Average temperature yesterday: 42 °F

Past Weeks' High & Low Weather Summary

High59 °F (Nov 15, 5:25 AM)100% (Nov 14, 6:25 PM)30.21 "Hg (Nov 14, 6:25 PM)
Low30 °F (Nov 23, 5:25 AM)59% (Nov 13, 1:25 PM)29.30 "Hg (Nov 21, 6:55 AM)
Average47 °F85%29.83 "Hg
* Reported Nov 13 4:25 AM — Nov 28 4:55 AM, Haarlem, Weather by CustomWeather, © 2015

Note: Actual official high and low records may vary slightly from our data, if they occured in-between our weather recording intervals... More about our weather records


Haarlem weather history for previous 24 hours

Time TempWeatherWind HumidityBarometerVisibility
4:55 AM
Sat, Nov 28
45 °FRain. Partly cloudy.17 mph81%29.71 "HgN/A
4:25 AM45 °FPassing clouds.20 mph81%29.68 "HgN/A
3:55 AM45 °FPartly cloudy.22 mph87%29.65 "HgN/A
3:25 AM46 °FLight rain. Partly cloudy.22 mph87%29.62 "HgN/A
2:55 AM46 °FLight rain. Partly cloudy.17 mph100%29.59 "Hg5 mi
2:25 AM43 °FRain. Mostly cloudy.18 mph100%29.59 "Hg2 mi
1:55 AM43 °FDrizzle. Mostly cloudy.21 mph93%29.59 "Hg4 mi
1:25 AM43 °FDrizzle. Mostly cloudy.17 mph93%29.62 "Hg2 mi
12:55 AM41 °FDrizzle. Mostly cloudy.20 mph100%29.62 "Hg2 mi
12:25 AM41 °FDrizzle. Mostly cloudy.20 mph100%29.62 "Hg2 mi
11:55 PM
Fri, Nov 27
41 °FLow clouds.21 mph100%29.65 "Hg4 mi
11:25 PM43 °FDrizzle. Low clouds.21 mph93%29.65 "Hg3 mi
10:55 PM43 °FDrizzle. Low clouds.21 mph93%29.65 "Hg3 mi
10:25 PM43 °FMostly cloudy.20 mph93%29.68 "Hg5 mi
9:55 PM43 °FPartly cloudy.20 mph93%29.68 "Hg5 mi
9:25 PM43 °FPartly cloudy.20 mph93%29.71 "Hg3 mi
8:55 PM43 °FPartly cloudy.18 mph93%29.71 "Hg3 mi
8:25 PM43 °FPartly cloudy.17 mph100%29.74 "Hg5 mi
7:55 PM43 °FPartly cloudy.18 mph100%29.74 "Hg5 mi
7:25 PM45 °FPartly cloudy.17 mph93%29.74 "Hg4 mi
6:55 PM45 °FPartly cloudy.20 mph93%29.77 "Hg4 mi
6:25 PM45 °FMostly cloudy.17 mph93%29.77 "Hg3 mi
5:55 PM45 °FMostly cloudy.17 mph100%29.77 "Hg4 mi
5:25 PM45 °FDrizzle. Low clouds.17 mph93%29.80 "Hg2 mi
4:55 PM45 °FDrizzle. Low clouds.17 mph93%29.80 "Hg2 mi
4:25 PM45 °FDrizzle. More clouds than sun.17 mph93%29.80 "Hg2 mi
3:55 PM43 °FDrizzle. Low clouds.17 mph100%29.83 "Hg2 mi
3:25 PM45 °FDrizzle. More clouds than sun.15 mph93%29.83 "Hg1 mi
2:55 PM45 °FDrizzle. Mostly cloudy.16 mph93%29.83 "Hg1 mi
2:25 PM45 °FDrizzle. Mostly cloudy.14 mph93%29.86 "Hg2 mi
1:55 PM45 °FDrizzle. Mostly cloudy.16 mph93%29.86 "Hg3 mi
1:25 PM45 °FMostly cloudy.15 mph93%29.89 "Hg6 mi
12:55 PM45 °FPartly sunny.14 mph93%29.92 "Hg6 mi
12:25 PM45 °FPartly sunny.14 mph93%29.92 "HgN/A
11:55 AM43 °FBroken clouds.13 mph93%29.95 "HgN/A
11:25 AM43 °FBroken clouds.15 mph93%29.95 "Hg6 mi
10:55 AM43 °FBroken clouds.12 mph93%29.95 "Hg6 mi
10:25 AM43 °FBroken clouds.13 mph93%29.98 "Hg6 mi
9:55 AM41 °FPartly sunny.15 mph93%29.98 "Hg6 mi
9:25 AM41 °FPartly sunny.14 mph93%29.98 "HgN/A
8:55 AM41 °FPartly sunny.12 mph93%29.98 "HgN/A
8:25 AM41 °FPartly sunny.12 mph93%29.98 "HgN/A
7:55 AM41 °FPassing clouds.12 mph93%29.98 "HgN/A
7:25 AM41 °FPassing clouds.10 mph93%30.01 "HgN/A
6:55 AM41 °FPassing clouds.10 mph93%30.01 "Hg6 mi
6:25 AM41 °FOvercast.9 mph100%30.01 "HgN/A
Weather by CustomWeather, © 2015

See weather overviewHow to use our weather pages